• Processing (Info)

  • MPEC 2022-V46 : 2022 UY27

    The following Minor Planet Electronic Circular may be linked-to from your own Web pages, but must not otherwise be redistributed electronically.

    A form allowing access to any MPEC is at the bottom of this page.


    Read MPEC 2022-V45 Read MPEC 2022-V47


    M.P.E.C. 2022-V46                              Issued 2022 November 2, 11:40 UT
    
         The Minor Planet Electronic Circulars contain information on unusual
             minor planets, routine data on comets and natural satellites,
             and occasional editorial announcements.  They are published
        on behalf of Division F of the International Astronomical Union by the
              Minor Planet Center, Smithsonian Astrophysical Observatory,
                              Cambridge, MA 02138, U.S.A.
    			  
                 Prepared using the Tamkin Foundation Computer Network
    
                                  MPC@CFA.HARVARD.EDU
                URL https://www.minorplanetcenter.net/    ISSN 1523-6714
    
                                    2022 UY27                                
    
    
    Observations:
         K22U27Y* C2022 10 29.33329903 47 55.612-02 32 42.68         20.56GVEV046G96
         K22U27Y  C2022 10 29.34034703 48 01.681-02 29 33.43         21.21GVEV046G96
         K22U27Y  C2022 10 29.34753103 48 07.787-02 26 23.57         20.76GVEV046G96
         K22U27Y  C2022 10 29.35464903 48 13.939-02 23 12.19         20.22GVEV046G96
         K22U27Y KC2022 10 29.46528903 49 46.819-01 35 16.91         21.20GVEV046I52
         K22U27Y KC2022 10 29.46618803 49 47.579-01 34 54.34         20.53GVEV046I52
         K22U27Y KC2022 10 29.46708703 49 48.349-01 34 31.08         20.86GVEV046I52
         K22U27Y KC2022 10 29.46798103 49 49.084-01 34 09.01         21.84GVEV046I52
         K22U27Y KC2022 10 30.27739704 01 06.258+03 20 42.54         21.12GVEV046I52
         K22U27Y KC2022 10 30.27941704 01 07.403+03 21 20.52         20.74GVEV046I52
         K22U27Y KC2022 10 30.28143804 01 08.605+03 21 59.04         21.41GVEV046I52
         K22U27Y KC2022 11 02.31043404 23 32.67 +13 24 33.1          22.3 VuEV046H21
         K22U27Y KC2022 11 02.31542104 23 33.73 +13 25 10.3          23.1 VuEV046H21
         K22U27Y KC2022 11 02.31739204 23 34.17 +13 25 24.9          22.9 VuEV046H21
         K22U27Y KC2022 11 02.32145104 23 35.03 +13 25 55.6          23.1 VuEV046H21
    
    Observer details:
    G96 Mt. Lemmon Survey.  Observer D. C. Fuls.  Measurers E. J. Christensen, D.
        Fay, J. B. Fazekas, D. C. Fuls, A. R. Gibbs, A. D. Grauer, H. Groeller, J.
        K. Hogan, R. A. Kowalski, S. M. Larson, G. J. Leonard, D. Rankin, R. L.
        Seaman, A. Serrano, F. C. Shelly, K. W. Wierzchos.  1.5-m reflector + 10K
        CCD.
    H21 Astronomical Research Observatory, Westfield.  Observer R. Holmes.
        Measurers T. Linder, R. Holmes, L. Horn.  1.3-m f/4.0 astrograph + CCD.
    I52 Steward Observatory, Mt. Lemmon Station.  Observer R. A. Kowalski.
        Measurers E. J. Christensen, D. Fay, J. B. Fazekas, D. C. Fuls, A. R.
        Gibbs, A. D. Grauer, H. Groeller, J. K. Hogan, R. A. Kowalski, S. M.
        Larson, G. J. Leonard, D. Rankin, R. L. Seaman, A. Serrano, F. C. Shelly,
        K. W. Wierzchos.  1.0-m prime focus + CCD.
    
    Orbital elements:
    2022 UY27                                                Earth MOID = 0.0117 AU
    Epoch 2022 Aug. 9.0 TT = JDT 2459800.5                  Veres                   
    M 344.59022              (2000.0)            P               Q                  
    n   0.26301531     Peri.  315.35022     +0.99221114     -0.12210503             
    a   2.4125817      Node    51.67928     +0.12126080     +0.90149625             
    e   0.5995125      Incl.    1.80017     +0.02851080     +0.41520462             
    P   3.75           H   28.12          G   0.15           U   7                  
    Residuals in seconds of arc
    221029 G96  0.4-  1.0-    221029 I52  0.0   0.0     221030 I52  0.3-  0.4+
    221029 G96  0.1-  0.0     221029 I52  0.2+  0.4+    221102 H21  0.2+  0.2+
    221029 G96 (0.7-  1.6-)   221029 I52  0.0   0.3-    221102 H21  0.1-  0.0
    221029 G96  0.6+  0.6+    221030 I52  0.6+  0.2-    221102 H21  0.1+  0.2-
    221029 I52  0.1-  0.3+    221030 I52  0.3-  0.2-    221102 H21  0.1-  0.0
    
    Ephemeris:
    2022 UY27                a,e,i = 2.41, 0.60, 2                   q = 0.9662
    Date    TT    R. A. (2000) Decl.     Delta      r    Elong.  Phase     V
    2022 10 03    17 15 24.2 -33 22 35   0.1289  0.9674    71.4   101.3    27.3
    ...
    2022 10 18    17 56 24.8 -42 10 16   0.04745 0.9785    66.4   111.0    25.7
    ...
    2022 10 26    01 20 01.7 -47 50 08   0.01371 1.0011   119.3    60.1    21.0
    ...
    2022 11 01    04 16 08.3 +10 10 25   0.03615 1.0248   152.2    26.9    22.2
    2022 11 02    04 22 00.4 +12 45 38   0.04149 1.0293   152.1    26.8    22.5
    2022 11 03    04 26 32.7 +14 45 02   0.04692 1.0339   152.2    26.6    22.8
    ...
    2022 11 09    04 40 04.4 +20 52 54   0.08077 1.0643   154.8    23.3    23.9
    ...
    2022 11 17    04 44 22.2 +23 47 14   0.1284  1.1114   161.5    16.4    24.8
    ...
    2022 12 02    04 42 22.4 +25 26 28   0.2293  1.2148   175.6     3.6    25.7
    
    M. P. C. Staff               (C) Copyright 2022 MPC           M.P.E.C. 2022-V46
    


    Read MPEC 2022-V45 Read MPEC 2022-V47


    MPEC number:

    Enter an MPEC number in one of the following forms:

    • 1997-B01 (the full form)
    • J97B01 (the packed version of the full form)
    • B01 (the abbreviated form)